Tracking 30744 objects as of 23-Jun-2025
HD Live streaming from Space Station
objects crossing your sky now

FENGYUN 1C DEB

Track FENGYUN 1C DEB now!
10-day predictions


NORAD ID: 31773
Int'l Code: 1999-025CFY
Perigee: 644.6 km
Apogee: 708.8 km
Inclination: 98.9 °
Period: 98.1 minutes
Semi major axis: 7047 km
RCS: 0.0025 m2 (small)
Launch date: May 10, 1999
Source: People's Republic of China (PRC)
Launch site: Taiyaun Space Center, China (TSC)

Note: This is SATELLITE DEBRIS
Your satellite tracking list
Your tracking list is empty




NASA's NSSDC Master Catalog

Two Line Element Set (TLE):
1 31773U 99025CFY 25168.18347740  .00009686  00000-0  16969-2 0  9994
2 31773  98.9388 142.1909 0045599  16.0842 344.1796 14.67347708945860
Source of the keplerian elements: AFSPC